Cloud_Cover
0 0 0 0 0 0 0 0 0 0 0 0 0 0 0 0 0 0 0 0 0 0 0 0 0 5 3 0 0 0 0 0 0 0 0 0 0 0 0 56 100 100 100 100
0 0 0 0 0 0 0 0 0 0 0 0 0 0 0 0 0 0 0 0 0 0 0 0 0 0 0 0 0 0 0 0 0 0 0 0 0 0 0 7 30 96 100 98
0 0 0 0 0 0 0 0 0 0 0 0 0 0 0 0 0 0 0 2 3 2 4 2 0 1 0 0 0 0 0 0 0 0 0 0 0 0 0 0 4 89 89 72
0 0 0 0 0 0 0 0 0 0 0 0 0 0 0 0 0 0 2 1 1 0 0 0 0 0 0 0 0 0 0 0 0 0 0 12 5 0 0 0 0 0 16 54
0 0 0 0 0 0 0 0 0 0 0 0 0 0 0 0 0 0 0 5 2 0 0 0 0 0 0 0 0 0 0 4 17 30 35 22 17 0 0 0 0 0 0 2
0 0 0 0 0 0 0 0 0 0 0 0 0 0 0 0 0 0 1 4 0 0 0 0 0 0 0 0 0 0 0 19 37 65 88 91 100 90 27 3 1 0 0 0
0 0 0 0 0 0 0 0 0 0 0 0 0 0 0 0 0 0 4 0 0 0 0 0 0 0 0 0 0 0 16 28 68 96 95 89 90 100 100 43 0 0 0 0
0 0 0 0 0 0 0 0 52 28 5 5 0 0 0 0 0 0 0 0 0 0 0 0 0 0 0 0 0 14 34 37 71 100 100 100 100 100 92 20 7 0 0 0
0 0 0 0 0 0 0 3 3 24 5 5 0 0 0 3 0 0 0 0 0 0 0 0 5 0 0 0 0 19 29 85 83 96 100 100 100 100 100 100 70 17 7 0
0 0 0 0 0 0 0 1 7 5 24 20 5 1 5 5 0 0 0 0 0 0 0 0 0 0 0 2 14 32 45 77 91 100 100 100 100 98 100 100 100 34 9 5
0 0 0 0 0 4 4 5 5 5 5 14 56 11 5 28 5 3 3 0 0 0 0 0 0 0 0 0 8 36 75 100 91 81 100 100 100 100 100 100 100 80 38 21
0 0 0 0 0 1 5 5 13 80 5 39 92 18 5 5 5 5 5 0 0 0 0 0 0 0 0 0 83 100 100 100 100 87 94 94 100 100 100 100 100 100 95 99
0 0 0 0 0 2 5 5 6 14 28 36 100 36 81 70 0 1 1 4 1 0 0 0 0 0 0 2 40 92 100 100 100 100 100 100 100 100 100 100 100 100 100 84
0 0 0 0 0 0 0 0 5 5 34 23 24 5 5 4 0 0 0 0 0 0 0 0 0 0 0 83 100 100 100 100 100 100 100 100 100 100 100 100 100 100 100 68
5 1 5 0 0 0 5 1 3 1 0 19 5 4 5 0 0 0 5 0 0 0 5 0 0 0 32 100 100 100 100 100 100 100 100 100 100 100 100 100 100 100 99 22
5 4 5 0 0 0 0 5 0 1 0 5 5 4 5 0 0 0 1 0 0 0 5 2 5 19 88 100 100 100 100 100 100 100 99 100 100 100 100 100 100 100 96 100
5 0 5 12 0 0 3 0 2 0 0 0 1 4 5 0 0 0 0 0 4 1 4 6 24 95 100 100 100 100 100 100 100 100 100 100 100 100 100 100 100 100 100 100
42 2 5 4 5 7 5 0 0 2 0 0 0 2 0 0 0 0 0 0 5 5 12 24 91 98 100 97 100 100 100 100 100 100 100 100 100 100 100 100 100 100 100 100
100 32 8 5 5 10 5 5 0 5 0 1 0 0 0 0 0 5 1 0 5 9 30 52 100 100 100 100 100 100 100 100 100 100 100 100 100 100 100 100 100 100 100 100
68 65 5 5 46 45 1 4 5 5 4 5 0 0 0 1 5 5 0 1 5 5 6 91 98 93 100 100 100 100 100 100 100 100 100 100 100 100 100 100 100 100 100 100
95 99 9 33 71 10 5 5 5 11 5 0 1 0 0 5 5 1 0 3 5 5 6 60 41 100 100 100 100 100 100 100 100 100 100 100 100 100 100 100 100 100 100 100
94 6 18 62 98 77 4 5 5 10 5 0 0 0 0 4 5 0 0 0 2 5 20 55 96 100 100 100 100 100 100 100 100 100 100 100 100 100 100 100 100 100 100 100
100 68 5 5 5 5 5 6 5 13 52 0 0 0 1 3 0 0 0 0 0 31 75 99 93 100 100 100 100 100 100 100 100 100 100 100 100 100 100 100 100 100 100 100
100 100 13 4 0 3 32 5 5 5 78 4 0 0 0 0 0 0 0 0 2 37 100 99 100 100 100 100 100 100 100 100 100 100 100 100 100 100 100 100 100 100 100 100
100 100 4 0 0 23 25 1 0 0 4 5 3 2 0 0 0 0 0 2 64 52 100 100 100 100 100 100 100 100 100 100 100 100 100 100 100 100 100 100 100 100 100 100
100 89 0 0 0 16 3 0 0 0 4 5 4 1 0 0 0 0 0 54 87 48 100 100 100 100 100 100 100 100 100 100 100 100 100 100 100 100 100 100 100 100 100 100